CAPE
0 0 0 0 0 0 0 0 0 0 0 0 0 0 0 0 0 0 0 0 0 0 0 0 0 0 0 0 14 0 435 1982 712 1242 844 783 496 852 577 314 445 498 900 1219
0 0 0 0 0 0 0 0 0 0 0 0 0 0 0 0 0 0 0 0 0 0 0 0 0 0 0 0 0 0 32 56 1433 1119 558 563 966 874 918 752 521 332 380 763
0 0 1 0 0 0 0 0 0 0 0 0 0 0 0 0 0 0 0 0 0 0 0 0 0 0 0 0 0 0 0 1 57 871 1033 481 252 593 553 777 903 531 520 433
0 0 1 0 0 0 0 0 0 0 0 0 1 0 0 0 0 0 0 0 0 0 0 0 0 0 0 0 0 0 0 0 0 1 102 426 1469 431 214 312 502 661 409 280
0 0 7 0 0 0 0 0 0 0 0 0 0 0 0 0 0 0 0 0 0 0 0 0 0 0 0 0 0 0 0 0 0 0 0 45 68 96 486 1471 1230 971 721 460
0 0 5 3 4 0 0 0 0 1 0 0 0 0 0 0 0 0 0 0 0 0 0 0 0 0 0 0 0 0 0 0 0 0 0 0 8 69 118 192 205 1066 912 608
40 22 5 33 1 0 0 0 0 0 3 0 0 0 0 0 0 0 0 0 0 0 0 0 0 0 0 0 0 0 0 0 0 0 0 0 0 0 26 31 98 54 40 430
2 41 37 23 1 3 1 0 5 2 0 7 0 0 0 0 0 0 0 0 0 0 0 0 0 0 0 0 0 0 0 0 0 0 0 0 0 0 0 3 0 0 0 65
55 59 0 0 12 8 2 6 38 44 0 0 0 0 0 0 0 0 0 0 0 0 0 0 2 0 0 0 0 0 0 0 0 0 0 0 0 0 0 0 0 3 14 279
22 1 4 91 55 3 5 35 39 66 5 1 0 0 1 1 0 0 0 0 0 0 0 0 0 0 0 0 0 0 0 0 0 0 0 0 0 22 0 0 0 9 18 0
8 46 1 134 82 0 1 11 18 44 50 5 0 1 0 0 0 0 0 0 0 0 0 0 0 0 0 3 0 0 1 0 0 4 0 0 0 0 12 8 0 13 34 63
0 23 16 52 63 41 3 99 73 7 0 13 39 0 0 0 0 0 0 0 0 0 4 0 0 0 0 0 0 0 0 0 0 0 0 0 0 0 0 19 68 0 0 4
8 48 4 0 66 42 5 1 80 76 105 22 8 0 42 27 25 0 0 0 3 47 21 4 0 0 0 0 0 0 0 0 0 0 0 0 4 0 0 0 122 146 39 23
0 0 9 5 3 2 0 0 0 10 20 7 1 0 29 0 0 0 0 0 47 12 39 36 25 14 2 1 0 0 0 0 0 0 0 0 5 0 0 0 46 101 415 146
6 6 14 16 12 20 2 23 46 31 20 27 18 6 1 7 13 0 0 0 17 32 28 23 9 0 0 0 0 0 0 0 0 0 0 0 5 19 19 0 0 30 167 352
4 3 15 3 23 16 28 33 46 12 31 23 19 3 20 73 22 94 81 4 0 3 0 0 0 0 0 0 0 0 0 0 0 0 0 0 17 35 36 3 15 47 119 288
7 15 16 1 11 5 2 51 103 113 48 35 40 14 6 0 0 0 0 0 2 0 0 0 0 0 0 0 0 0 0 0 0 0 0 0 6 30 30 16 20 31 62 205
6 11 15 4 5 0 0 8 7 3 16 0 24 66 55 8 0 0 0 0 0 1 1 0 0 0 8 10 14 3 0 0 3 28 1 0 3 16 32 19 22 43 131 261
3 7 4 6 7 0 43 73 23 12 14 118 26 0 1 0 0 0 0 0 0 0 0 4 20 1 0 0 0 0 1 1 6 1 1 5 3 0 38 47 99 168 455 219
12 6 3 8 5 3 23 48 9 1 0 11 2 2 3 3 3 0 0 0 0 0 0 6 8 12 10 0 0 4 11 29 7 11 10 25 3 0 8 99 143 211 308 276
1 2 2 8 11 1 38 14 7 0 17 0 3 2 8 2 4 1 9 3 2 10 15 9 9 15 4 7 9 7 12 15 1 0 9 21 2 1 5 258 295 255 438 299
21 8 7 11 15 7 13 0 9 21 21 20 11 15 11 4 0 0 0 1 1 1 0 0 2 2 0 0 2 7 2 0 0 0 4 9 17 23 69 310 305 357 404 371
25 48 4 24 15 34 0 2 0 1 10 3 14 2 7 8 0 0 3 5 8 8 7 5 7 7 2 2 0 1 0 3 0 0 1 6 21 57 82 163 363 329 440 485
14 1 9 6 13 0 0 0 0 2 13 20 0 6 7 8 4 4 8 6 7 8 6 6 6 6 5 6 2 1 0 1 9 4 6 33 66 75 115 209 253 269 516 589
1 1 1 0 0 0 0 0 1 0 0 6 12 0 0 3 6 6 3 3 5 6 8 9 7 7 5 6 2 2 3 3 1 2 4 53 41 35 71 68 54 285 482 833
5 0 1 1 0 4 1 0 0 2 8 0 2 0 3 8 4 3 3 4 5 5 3 4 7 6 4 1 1 2 1 1 6 3 5 3 16 20 35 108 69 1 376 567
CIN
-0 -0 -0 -0 -0 -0 -0 -0 -0 -0 -0 -0 -0 -0 -0 -0 -0 -0 -0 -0 -0 -0 -0 -0 -0 -0 -0 -0 -332 -0 -164 -31 -96 -119 -69 -145 -163 -114 -118 -147 -138 -153 -109 -118
-0 -0 -0 -0 -0 -0 -0 -0 -0 -0 -0 -0 -0 -0 -0 -0 -0 -0 -0 -0 -0 -0 -0 -0 -0 -0 -0 -0 -0 -0 -264 -284 -104 -94 -159 -98 -114 -50 -39 -123 -137 -155 -187 -144
-0 -0 -5 -0 -0 -0 -0 -0 -0 -0 -0 -0 -0 -0 -0 -0 -0 -0 -0 -0 -0 -0 -0 -0 -0 -0 -0 -0 -0 -0 -31 -133 -219 -104 -115 -131 -174 -59 -54 -94 -135 -180 -180 -175
-0 -0 -7 -0 -0 -0 -0 -0 -0 -0 -0 -0 -4 -0 -0 -0 -0 -0 -0 -0 -0 -0 -0 -0 -0 -0 -0 -0 -0 -0 -0 -0 -0 -53 -171 -136 -26 -113 -163 -152 -178 -162 -163 -168
-0 -0 -6 -0 -0 -0 -0 -0 -4 -0 -0 -0 -0 -0 -0 -0 -0 -0 -0 -0 -0 -0 -0 -0 -0 -0 -0 -0 -0 -0 -0 -0 -0 -0 -0 -180 -133 -180 -120 -20 -22 -48 -127 -161
-0 -0 -12 -9 -9 -3 -0 -0 -0 -3 -0 -0 -0 -0 -0 -0 -0 -0 -0 -0 -0 -0 -0 -0 -0 -0 -0 -0 -0 -0 -0 -0 -0 -0 -0 -0 -149 -167 -174 -168 -139 -74 -75 -106
-10 -12 -11 -7 -12 -0 -0 -0 -0 -0 -3 -0 -0 -5 -0 -0 -0 -0 -0 -0 -0 -0 -0 -0 -0 -0 -0 -0 -0 -0 -0 -0 -0 -0 -0 -0 -0 -11 -163 -236 -224 -224 -214 -118
-14 -55 -27 -64 -4 -31 -22 -1 -3 -1 -0 -13 -0 -0 -0 -0 -0 -0 -0 -0 -0 -0 -0 -0 -0 -0 -0 -0 -0 -0 -0 -0 -0 -0 -0 -0 -0 -28 -14 -257 -0 -0 -0 -103
-14 -21 -0 -0 -22 -91 -8 -17 -4 -4 -0 -0 -0 -0 -0 -0 -0 -0 -0 -0 -0 -0 -0 -0 -9 -0 -0 -0 -0 -0 -0 -0 -0 -0 -0 -0 -0 -0 -0 -0 -0 -220 -267 -144
-63 -7 -5 -8 -35 -92 -10 -20 -8 -7 -11 -18 -0 -0 -26 -38 -0 -0 -0 -0 -0 -0 -0 -0 -0 -0 -0 -0 -0 -0 -0 -0 -0 -0 -0 -0 -0 -32 -0 -0 -0 -73 -276 -0
-104 -23 -40 -8 -54 -0 -11 -9 -5 -3 -12 -15 -0 -8 -4 -0 -0 -0 -0 -0 -0 -0 -0 -0 -0 -0 -1 -7 -0 -0 -3 -0 -0 -4 -0 -0 -0 -0 -102 -111 -0 -163 -154 -189
-2 -3 -31 -37 -15 -19 -11 -7 -34 -70 -0 -4 -1 -0 -0 -0 -0 -0 -0 -0 -0 -0 -2 -0 -0 -0 -0 -0 -0 -0 -0 -0 -0 -0 -0 -0 -0 -0 -0 -55 -58 -0 -0 -171
-13 -7 -25 -0 -25 -54 -34 -59 -19 -18 -8 -2 -4 -0 -18 -15 -45 -0 -0 -0 -13 -2 -3 -4 -0 -0 -0 -0 -0 -0 -0 -0 -0 -0 -0 -0 -6 -0 -0 -0 -45 -62 -165 -213
-0 -0 -3 -3 -3 -11 -0 -0 -0 -12 -7 -4 -3 -0 -10 -0 -0 -0 -0 -0 -29 -30 -5 -6 -2 -11 -4 -1 -0 -0 -0 -0 -0 -0 -0 -0 -8 -0 -0 -0 -48 -83 -4 -87
-2 -2 -2 -3 -4 -3 -41 -34 -29 -6 -4 -7 -8 -6 -5 -34 -19 -0 -0 -0 -81 -18 -31 -25 -27 -0 -0 -0 -0 -0 -0 -0 -0 -0 -0 -0 -5 -8 -4 -0 -0 -45 -74 -14
-4 -1 -1 -2 -35 -27 -6 -3 -8 -5 -4 -5 -6 -6 -5 -21 -68 -37 -47 -113 -0 -99 -0 -0 -0 -0 -0 -0 -0 -0 -0 -0 -0 -0 -0 -0 -1 -5 -6 -1 -48 -37 -69 -42
-1 -0 -2 -1 -4 -17 -4 -11 -3 -6 -19 -54 -22 -21 -55 -0 -0 -0 -5 -0 -0 -1 -0 -0 -0 -0 -0 -0 -0 -0 -0 -0 -0 -0 -0 -0 -26 -2 -6 -1 -41 -57 -35 -37
-1 -1 -1 -1 -2 -0 -0 -49 -55 -22 -36 -30 -2 -13 -10 -18 -0 -0 -0 -0 -0 -1 -1 -0 -0 -0 -6 -12 -4 -7 -0 -0 -4 -1 -0 -0 -67 -0 -2 -25 -50 -41 -9 -12
-2 -2 -1 -0 -1 -2 -5 -2 -14 -11 -33 -9 -6 -3 -1 -0 -0 -0 -0 -0 -0 -0 -0 -0 -0 -1 -2 -0 -0 -0 -9 -8 -6 -2 -0 -13 -76 -0 -22 -53 -47 -14 -6 -43
-8 -2 -1 -1 -1 -0 -4 -8 -52 -12 -0 -20 -1 -1 -1 -1 -0 -0 -0 -0 -0 -0 -0 -1 -3 -3 -4 -0 -0 -23 -0 -0 -3 -2 -5 -3 -56 -0 -52 -62 -82 -49 -9 -11
-0 -3 -0 -1 -0 -2 -2 -16 -63 -0 -4 -0 -0 -2 -3 -1 -1 -0 -0 -1 -0 -0 -1 -9 -13 -3 -19 -20 -22 -3 -0 -0 -0 -1 -8 -4 -7 -31 -41 -13 -36 -46 -1 -8
-1 -2 -2 -1 -2 -13 -2 -2 -0 -0 -2 -0 -1 -1 -1 -0 -0 -0 -0 -0 -0 -0 -0 -0 -0 -2 -0 -0 -0 -0 -0 -0 -0 -0 -7 -5 -10 -74 -50 -14 -37 -35 -13 -13
-3 -0 -2 -1 -7 -6 -1 -18 -0 -2 -0 -4 -0 -3 -0 -0 -0 -0 -0 -0 -0 -0 -0 -0 -0 -0 -0 -0 -0 -0 -0 -0 -0 -0 -0 -56 -50 -22 -25 -32 -9 -18 -6 -7
-4 -0 -0 -0 -13 -0 -0 -0 -0 -3 -0 -0 -4 -0 -1 -0 -0 -0 -0 -0 -0 -0 -0 -0 -0 -0 -0 -0 -0 -0 -0 -0 -0 -0 -44 -9 -5 -8 -33 -12 -25 -51 -8 -3
-4 -0 -0 -0 -0 -0 -0 -0 -0 -1 -2 -1 -2 -0 -0 -0 -0 -0 -0 -0 -0 -0 -0 -0 -0 -0 -0 -0 -0 -0 -0 -0 -0 -0 -37 -1 -11 -11 -39 -93 -114 -13 -15 -7
-0 -1 -0 -0 -0 -0 -0 -0 -0 -8 -1 -1 -3 -0 -0 -0 -0 -0 -0 -0 -0 -0 -0 -0 -0 -0 -0 -0 -0 -0 -0 -0 -0 -0 -0 -0 -6 -50 -34 -6 -65 -10 -36 -33
Wind_Speed
20 22 25 25 24 28 34 41 39 35 25 17 26 29 31 27 24 22 26 27 26 25 25 19 20 16 16 26 26 26 22 23 26 25 31 31 28 37 42 35 39 36 32 32
16 22 25 30 33 35 34 36 38 39 35 30 28 33 35 36 36 33 24 23 25 22 21 25 23 24 22 19 27 28 28 25 26 32 28 36 34 32 33 33 36 37 37 35
20 27 29 29 30 30 33 35 37 39 36 34 33 41 41 43 40 38 31 30 28 25 21 21 23 25 24 25 25 30 29 29 28 28 28 32 38 42 42 42 36 38 33 33
24 23 23 26 31 30 38 31 33 35 37 38 32 49 40 34 36 26 27 27 27 24 17 14 19 23 25 28 20 26 29 26 27 28 29 28 31 38 47 41 43 40 36 33
17 23 22 19 25 27 33 33 31 33 34 35 39 40 42 35 31 18 20 19 21 20 19 18 17 19 18 22 24 19 27 26 28 29 29 32 34 35 34 36 36 40 38 31
24 23 20 18 20 20 27 34 35 32 34 44 40 38 45 37 30 15 11 12 13 13 14 15 12 13 16 17 19 17 20 26 25 28 27 31 36 38 37 35 35 34 42 40
13 28 26 29 21 18 20 30 38 37 41 42 33 40 35 23 21 9 9 10 10 12 10 12 13 15 15 18 21 22 22 20 21 23 27 27 28 32 36 41 37 41 41 38
25 39 31 27 30 23 25 18 28 35 34 37 34 29 19 15 7 4 4 8 11 15 12 13 14 18 19 21 21 24 26 26 24 24 26 25 28 32 35 34 34 38 44 32
17 24 29 38 24 17 21 26 20 32 39 41 32 32 27 19 5 9 12 13 16 16 18 18 16 20 22 21 22 21 23 27 28 28 28 26 27 29 32 37 38 39 41 39
25 25 34 29 25 26 15 20 26 26 40 42 39 33 25 30 12 11 15 15 15 15 18 19 21 24 25 24 23 25 25 25 26 28 31 32 31 29 29 30 36 39 39 41
30 27 33 24 26 26 39 19 22 29 28 32 35 31 24 20 20 16 15 13 15 18 20 24 25 28 28 25 25 25 25 26 27 27 28 29 32 33 31 32 34 33 38 39
24 20 32 37 34 25 32 23 22 28 35 38 40 45 19 19 22 27 24 18 20 22 21 23 25 26 28 29 30 31 31 33 33 34 35 33 34 34 33 34 34 35 40 42
28 25 28 30 29 28 28 33 30 30 37 42 33 35 19 29 19 26 34 34 28 25 26 26 23 23 27 30 31 33 33 35 38 39 40 40 35 36 37 38 37 36 38 40
20 23 21 36 35 25 29 33 36 31 35 41 42 45 39 28 35 39 40 39 42 36 29 27 26 27 31 30 31 34 38 38 40 43 45 46 43 40 39 38 38 40 39 38
8 3 22 35 36 38 34 31 33 33 38 38 40 44 43 40 36 36 17 18 35 34 35 34 34 35 37 39 41 40 41 42 43 46 50 50 46 42 42 42 42 41 42 42
5 3 10 21 31 35 37 34 15 14 27 45 45 46 40 39 38 36 39 38 41 39 38 39 41 43 44 43 41 41 43 45 45 48 52 49 43 40 42 42 43 43 42 43
5 7 4 12 21 26 27 27 32 30 28 29 34 41 42 45 36 37 34 37 30 36 44 44 46 47 46 45 43 42 42 42 44 44 44 45 44 41 42 43 43 44 45 43
5 3 7 15 21 18 24 25 26 31 31 20 33 33 34 34 38 42 42 44 48 47 48 48 47 47 43 42 43 44 44 42 41 41 40 42 44 49 41 42 42 43 44 43
5 6 8 7 18 23 25 25 25 27 34 28 34 38 43 46 51 51 46 47 49 51 52 51 47 47 48 46 46 49 51 43 41 37 41 44 50 49 42 42 42 40 42 43
10 9 8 15 7 20 25 30 35 36 32 33 41 45 49 51 55 54 51 55 58 59 56 55 53 50 49 49 50 51 44 35 32 31 35 42 49 52 48 44 40 41 43 42
12 10 8 7 4 7 27 35 36 35 38 48 48 51 52 55 52 62 58 59 57 58 58 57 55 52 49 45 45 46 37 29 29 26 37 41 46 48 49 46 43 44 44 43
11 13 12 11 13 17 34 37 38 40 46 47 51 50 54 56 59 61 63 62 60 59 58 56 55 53 45 38 35 32 30 25 26 30 39 43 42 43 46 43 42 44 45 46
16 16 12 12 10 25 38 36 36 40 47 48 52 53 54 57 58 61 58 57 53 53 53 53 52 49 31 30 28 27 32 27 26 28 27 37 42 42 42 41 43 43 44 46
15 22 13 10 16 22 32 30 40 42 25 31 25 32 53 46 51 49 46 42 44 46 51 53 53 51 48 42 33 24 19 16 16 39 44 44 46 46 46 44 43 43 44 46
17 15 20 5 15 22 26 45 45 36 25 23 29 45 42 39 33 30 34 32 34 40 52 56 57 55 51 45 32 25 24 25 30 34 39 40 40 42 44 44 43 44 45 48
21 19 16 10 12 10 16 23 26 25 31 39 43 44 38 28 27 29 31 33 34 33 35 36 33 40 50 45 38 31 28 30 32 33 35 37 37 39 41 41 40 34 41 43
Wind_Direction
306 297 293 293 289 285 283 277 283 282 297 275 273 281 278 281 277 276 279 279 279 279 269 271 263 269 277 261 261 263 258 263 259 258 252 248 257 256 253 259 256 260 265 263
308 300 294 294 289 284 285 283 280 276 282 286 285 279 279 279 279 280 277 277 278 276 269 263 266 268 278 279 263 264 263 259 267 262 267 256 249 256 257 258 259 259 264 263
309 303 298 301 293 286 284 283 281 279 280 283 282 280 281 278 276 274 274 277 278 275 271 263 263 271 273 280 270 267 270 267 263 265 267 270 258 260 257 258 262 261 263 264
307 311 303 303 293 288 281 286 285 284 276 276 283 277 282 285 281 256 268 273 276 274 272 268 272 274 275 275 288 269 268 272 270 262 266 266 265 261 256 259 262 264 263 262
305 310 310 301 300 294 284 293 290 284 284 282 277 280 278 284 283 275 275 277 278 276 274 278 277 281 278 282 281 292 272 272 273 273 270 265 269 269 267 264 264 260 259 252
304 305 302 301 306 299 297 292 286 285 281 274 277 279 275 279 280 257 257 273 280 275 274 277 290 293 290 286 286 285 288 277 274 273 277 272 266 268 269 268 270 270 268 272
293 300 300 261 292 292 299 290 279 282 271 270 288 281 277 294 296 200 242 271 280 288 279 282 281 288 289 293 290 286 289 287 289 283 277 277 276 277 274 270 274 271 273 285
316 259 304 297 288 290 290 288 282 276 279 274 293 284 281 290 288 332 314 295 305 294 283 279 280 291 294 293 293 292 291 289 291 291 287 283 279 278 278 278 276 274 273 281
313 305 295 299 304 292 278 283 293 280 277 274 278 275 282 294 263 267 278 289 291 294 289 286 290 293 294 297 297 297 293 290 289 290 290 288 285 281 280 275 274 274 274 281
311 310 294 304 308 289 274 292 283 287 273 270 269 273 291 287 267 274 282 283 290 294 293 293 294 293 292 292 294 296 295 293 292 291 287 286 287 287 282 281 275 273 273 275
314 308 295 301 298 291 260 276 285 286 277 275 273 275 285 306 279 294 299 295 294 295 293 293 296 297 297 300 298 296 294 295 294 293 291 290 287 285 285 282 279 276 274 272
310 313 308 277 282 291 285 293 289 277 277 273 273 267 299 285 290 277 284 300 299 293 295 297 296 295 298 298 298 299 300 298 294 292 290 289 287 284 282 284 282 279 274 271
316 320 312 293 287 289 294 286 282 282 276 267 277 276 293 286 299 272 282 285 290 295 299 299 295 294 296 296 294 295 297 298 297 296 290 288 284 284 282 281 282 280 277 273
345 313 303 265 266 291 295 275 272 287 279 273 270 270 275 290 285 272 282 282 280 293 298 300 300 297 300 303 301 298 297 298 296 294 291 286 284 280 280 281 280 279 278 275
53 185 233 269 273 270 277 284 260 239 270 276 276 272 273 285 284 277 289 230 281 294 298 297 297 298 300 299 296 298 298 299 297 294 291 285 283 280 278 276 277 276 275 273
89 185 213 238 259 270 276 285 281 266 230 258 275 259 283 292 296 292 292 295 297 299 298 297 296 297 295 298 301 299 298 299 297 294 289 285 278 277 276 275 273 274 272 270
70 53 159 220 246 257 243 302 283 296 290 308 289 285 287 288 299 294 304 298 304 297 289 296 297 297 297 297 297 298 300 299 295 294 286 281 280 275 272 272 271 271 268 268
76 138 200 233 250 229 258 278 304 294 292 320 286 297 302 303 299 295 303 299 297 299 297 299 300 299 301 301 302 301 299 296 295 291 286 278 274 272 268 267 268 268 264 264
91 75 70 126 239 253 285 304 336 320 293 324 315 310 305 304 299 293 304 303 301 299 298 297 298 298 300 300 300 296 293 294 293 289 282 275 263 266 265 263 264 267 262 260
84 137 144 229 262 331 315 321 319 313 315 324 314 308 304 304 291 295 304 301 297 295 296 295 296 298 297 298 295 294 295 293 288 289 284 272 259 254 255 260 262 266 262 256
52 78 143 165 94 45 339 318 321 319 313 308 312 311 308 304 306 297 305 302 301 298 295 295 295 294 295 297 298 294 294 292 290 288 279 267 253 248 248 254 255 260 257 251
55 40 38 37 11 357 327 328 333 326 319 318 312 317 309 306 303 300 294 296 297 294 291 291 288 289 297 300 299 296 292 292 291 285 272 261 256 250 247 253 256 255 252 242
21 23 36 34 27 315 329 337 339 332 304 316 312 313 315 300 301 297 289 290 283 281 283 287 289 292 299 298 295 292 291 291 290 286 281 267 255 250 249 253 247 249 242 234
16 359 29 29 17 340 348 348 334 305 292 291 328 329 303 290 291 287 283 276 276 275 277 280 275 264 257 288 293 287 279 274 237 234 244 250 238 241 237 241 239 235 228 222
1 12 358 337 6 326 358 330 308 298 298 300 299 299 297 294 290 290 285 285 279 273 276 281 276 265 256 250 235 228 223 218 219 221 225 223 224 223 225 227 226 222 218 210
347 7 8 360 321 317 303 296 297 297 300 302 304 304 304 305 305 302 297 289 284 277 272 264 252 246 252 241 231 220 215 215 212 209 210 210 209 208 208 210 211 218 211 207